カタログに戻る

SCD 1

運用中科学LEO
NORAD 22490·PAYLOAD·🇧🇷 Brazil

打ち上げ Feb 9, 1993 から Cape Canaveral Space Force Station

Loading…

次のパス (今後24時間)

TLE

最新Source: Space-Track

元期: Sep 14, 2026, 09:21 UTC

1 22490U 93009B   26257.39023684  .00000321  00000-0  37106-4 0  9992
2 22490  24.9708  16.7860 0041959   2.4907  38.8096 14.46148742774044

AllMySatでSCD 1をリアルタイム追跡

Download on the App Store